STARLINK-2538, 48300

Orbit data source: Space-Track

STARLINK-2538, 48300 is a payload satellite owned by SpaceX/Seattle (US) in LEO that was launched on Thu, 29 Apr 2021 UTC via an FALCON 9 launch vehicle from the Air Force Eastern Test Range (AFETR). Payload-class satellites include a variety of spacecraft equipped with specific instruments for various scientific and technological missions. These include communications satellites like Starlink; space stations such as the ISS; scientific satellites like the Hubble; Earth observation satellites from companies like Planet Labs, Umbra, and HawkEye 360; GPS; miniature CubeSats for education and research; and military/defense satellites.

Loading next visibility...
Identifier
48300, 2021-036AA
Orbit
LEO
Country
Flag of USUS
Related business
Manufacturer
SpaceX/Seattle
Mission
Operational Commercial Communications
Bus & Motor
STARLINK, Unknown motor
Mass
260 kg wet, ~248 kg dry
Launch date (UTC)
2021-04-29 (5 years ago)
Launch vehicle
FALCON 9
Launch site
Air Force Eastern Test Range (AFETR)
Object type
Payload
Rocket body
Debris
Shape & HBR
Box + 1 Pan, 10.1 m
Radar Cross Section
13.562 m², Large (>1 m²)

Expand to show TLE details & history
Last TLE update: 16 hours ago

TLE from 16 hours ago
0 STARLINK-2538
1 48300U 21036AA  26036.95011437  .00003283  00000-0  23913-3 0  9991
2 48300  53.0538 234.1020 0001478  89.3436 270.7722 15.06408192263392
Epoch: 2026-02-05T22:48Z
TLE epoch observation values (Epoch: 2026-02-05T22:48:09.881Z)
Latitude
-0.00005°
Longitude
115.9658°
Altitude
548.052 km
Speed
7.589 km/s
True Right ascension
15h 36m 24s
True Declination
0° 00' 00"
Sunlit
Object was in daylight at epoch
Visualization orbit readout
Latitude
Unknown
Longitude
Unknown
Altitude
Unknown
Speed
Unknown
Apparent Right ascension
Unknown
Apparent Declination
Unknown
Sunlit
N/A
Visualization observer readout
Local Sidereal Time
17:23:35
Azimuth
Unknown
Elevation
Unknown
Doppler factor
Unknown
Orbital elements
Apogee altitude
548.481 km
Perigee altitude
546.434 km
Semi-major axis
6,925.594 km
Eccentricity
0.00015
Inclination
53.0538°
RAAN
234.102°
Arg. of periapsis
89.3436°
True anomaly
270.75526°
Mean anomaly
270.7722°
Eccentric anomaly
270.76373°
Mean motion
3.7658 °/min
Orbital period
95.6 mins
BSTAR
0.00023913
Loading maneuver chart data...
Computing Atmospheric mass density...
Loading historical data...
Loading historical data...
Loading historical data...
Loading historical data...
Loading historical data...
Loading historical data...
Loading historical data...

Documentation

Showing up to 5 results
|